SCP
0 0 0 0 0 0 0 0 0 0 0 0 0 0 0 0 0 0 0 0 0 0 0 0 0 0 0
0 0 0 0 0 0 0 0 0 0 0 0 0 0 0 0 0 0 0 0 0 0 0 0 0 0 0
0 0 0 0 0 0 0 0 0 0 0 0 0 0 0 0 0 0 0 0 0 0 0 0 0 0 0
0 0 0 0 0 0 0 0 0 0 0 0 0 0 0 0 0 0 0 0 0 0 0 0 0 0 0
0 0 0 0 0 0 0 0 0 0 0 0 0 0 0 0 0 0 0 0 0 0 0 0 0 0 0
0 0 0 0 0 0 0 0 0 0 0 0 0 0 0 0 0 0 0 0 0 0 0 0 0 0 0
-0 -0 -0 0 0 0 0 0 0 0 0 0 0 0 0 0 0 0 0 0 0 0 0 0 0 0 0
0 0 -0 0 0 0 0 0 0 0 0 0 0 0 0 0 0 0 0 0 1 1 0 0 0 0 0
0 0 0 -0 0 0 0 0 0 0 0 0 0 0 0 0 0 0 0 0 1 1 0 0 0 0 0
0 0 0 0 0 0 0 0 0 0 0 0 0 0 0 0 0 0 0 1 1 1 0 0 0 0 0
0 0 0 0 0 0 0 0 0 0 0 0 0 0 0 0 0 0 0 0 0 0 0 0 0 0 0
0 0 0 0 0 0 0 0 0 0 0 0 0 0 0 0 0 0 0 0 0 0 0 0 0 0 0
0 0 0 0 0 0 0 0 0 0 0 0 0 0 0 0 0 0 0 0 0 0 0 0 0 0 0
0 0 0 0 0 0 0 0 0 0 0 0 0 0 0 0 0 0 0 0 0 0 0 0 0 0 0
0 0 0 0 0 0 0 0 0 0 0 0 0 0 0 0 0 0 0 0 0 0 0 0 0 0 0
0 0 0 0 0 0 0 0 0 0 0 0 0 0 0 0 0 0 0 0 0 0 0 0 0 0 0
Wind_Speed_500mb
59 55 50 47 45 42 38 37 34 33 37 41 47 52 52 52 56 54 53 54 53 49 46 44 44 47 47
53 54 49 46 46 45 45 42 39 43 44 51 53 55 59 58 59 63 60 58 57 54 53 50 45 46 49
38 39 46 46 43 46 47 48 47 43 44 47 55 58 64 64 63 63 69 68 64 61 58 53 48 48 49
40 36 37 44 47 43 46 50 50 51 45 46 51 52 58 66 71 69 68 70 67 66 65 58 54 51 50
41 41 40 39 45 49 45 47 52 52 54 49 49 55 53 62 64 71 72 70 75 76 74 69 63 58 53
55 51 47 43 42 45 52 50 49 56 55 55 53 52 53 48 57 63 70 78 77 82 81 80 73 65 58
59 62 61 54 48 45 47 52 54 53 57 57 56 54 54 54 53 46 68 72 79 82 83 92 79 66 58
61 64 66 62 58 53 47 48 55 57 57 58 58 57 55 52 59 49 56 71 79 83 86 85 86 77 72
61 64 68 67 59 59 55 49 54 58 59 59 60 60 52 49 60 57 53 59 73 82 89 91 93 84 91
63 65 65 64 65 60 58 56 52 57 60 61 63 62 55 48 49 55 52 61 68 89 93 100 92 106 96
67 64 62 60 61 63 60 59 55 55 59 61 64 64 57 53 47 50 40 54 58 89 92 106 98 104 97
65 59 59 58 57 59 61 60 55 53 55 59 63 65 60 56 52 55 44 41 37 66 59 91 95 107 97
54 52 53 54 54 56 57 59 51 47 49 56 61 64 63 57 52 48 51 58 58 40 20 46 75 88 69
48 44 47 51 54 55 53 52 47 34 34 51 55 60 62 57 52 43 44 61 63 70 42 35 27 44 53
48 49 47 47 49 51 53 51 47 39 37 48 47 51 58 58 57 48 43 50 70 68 70 51 31 17 41
46 46 46 48 50 46 51 50 45 32 37 40 36 42 50 59 58 60 47 62 45 73 64 61 55 44 35
Wind_Direction_500mb
304 299 296 290 279 277 273 274 277 262 253 250 239 232 232 232 229 224 222 222 221 219 226 229 233 234 235
291 291 291 287 280 272 269 268 266 266 260 253 249 241 236 234 231 228 225 227 226 230 231 233 234 233 234
289 284 285 287 284 275 268 266 265 260 260 257 253 249 238 235 236 233 229 226 231 234 229 231 232 233 232
299 294 284 281 282 281 272 266 262 262 262 259 256 252 247 241 233 236 234 230 228 230 228 228 229 233 230
307 306 298 285 276 276 277 271 264 261 259 263 258 258 255 250 243 234 238 233 231 228 225 224 225 229 227
311 309 307 299 288 275 271 273 269 261 258 257 262 259 257 252 249 242 235 239 237 234 231 226 222 221 223
310 309 307 304 295 284 273 268 270 265 258 256 255 260 261 257 254 249 242 239 240 240 240 229 224 218 218
309 306 303 300 296 290 279 269 266 267 263 256 253 253 256 255 254 249 254 243 244 240 240 244 225 208 213
310 305 300 298 295 290 286 273 266 266 264 259 254 249 250 253 252 249 255 254 245 247 238 235 228 229 222
306 304 299 294 293 292 286 280 268 265 263 261 256 250 245 247 253 245 257 253 256 246 241 234 229 222 216
305 300 295 291 290 290 285 280 276 265 263 262 257 251 246 246 250 242 252 256 255 237 230 232 231 216 213
299 295 291 290 290 286 285 281 278 269 260 262 257 252 247 244 247 248 250 228 230 237 210 197 201 198 198
298 297 291 290 287 284 285 286 282 269 263 261 256 251 246 244 241 249 251 248 234 219 211 188 181 187 197
297 292 290 292 290 289 286 285 282 257 271 262 258 251 248 243 233 241 240 234 234 227 186 164 163 175 186
297 293 292 289 287 289 289 283 281 253 263 264 257 252 249 243 233 234 239 224 220 210 210 197 186 187 192
296 293 293 294 292 288 287 285 282 255 264 263 261 251 254 243 236 234 241 234 220 207 194 200 195 194 178
Wind_Speed_850mb
59 55 50 47 45 42 38 37 34 33 37 41 47 52 52 52 56 54 53 54 53 49 46 44 44 47 47
53 54 49 46 46 45 45 42 39 43 44 51 53 55 59 58 59 63 60 58 57 54 53 50 45 46 49
38 39 46 46 43 46 47 48 47 43 44 47 55 58 64 64 63 63 69 68 64 61 58 53 48 48 49
40 36 37 44 47 43 46 50 50 51 45 46 51 52 58 66 71 69 68 70 67 66 65 58 54 51 50
41 41 40 39 45 49 45 47 52 52 54 49 49 55 53 62 64 71 72 70 75 76 74 69 63 58 53
55 51 47 43 42 45 52 50 49 56 55 55 53 52 53 48 57 63 70 78 77 82 81 80 73 65 58
59 62 61 54 48 45 47 52 54 53 57 57 56 54 54 54 53 46 68 72 79 82 83 92 79 66 58
61 64 66 62 58 53 47 48 55 57 57 58 58 57 55 52 59 49 56 71 79 83 86 85 86 77 72
61 64 68 67 59 59 55 49 54 58 59 59 60 60 52 49 60 57 53 59 73 82 89 91 93 84 91
63 65 65 64 65 60 58 56 52 57 60 61 63 62 55 48 49 55 52 61 68 89 93 100 92 106 96
67 64 62 60 61 63 60 59 55 55 59 61 64 64 57 53 47 50 40 54 58 89 92 106 98 104 97
65 59 59 58 57 59 61 60 55 53 55 59 63 65 60 56 52 55 44 41 37 66 59 91 95 107 97
54 52 53 54 54 56 57 59 51 47 49 56 61 64 63 57 52 48 51 58 58 40 20 46 75 88 69
48 44 47 51 54 55 53 52 47 34 34 51 55 60 62 57 52 43 44 61 63 70 42 35 27 44 53
48 49 47 47 49 51 53 51 47 39 37 48 47 51 58 58 57 48 43 50 70 68 70 51 31 17 41
46 46 46 48 50 46 51 50 45 32 37 40 36 42 50 59 58 60 47 62 45 73 64 61 55 44 35
Wind_Direction_850mb
304 299 296 290 279 277 273 274 277 262 253 250 239 232 232 232 229 224 222 222 221 219 226 229 233 234 235
291 291 291 287 280 272 269 268 266 266 260 253 249 241 236 234 231 228 225 227 226 230 231 233 234 233 234
289 284 285 287 284 275 268 266 265 260 260 257 253 249 238 235 236 233 229 226 231 234 229 231 232 233 232
299 294 284 281 282 281 272 266 262 262 262 259 256 252 247 241 233 236 234 230 228 230 228 228 229 233 230
307 306 298 285 276 276 277 271 264 261 259 263 258 258 255 250 243 234 238 233 231 228 225 224 225 229 227
311 309 307 299 288 275 271 273 269 261 258 257 262 259 257 252 249 242 235 239 237 234 231 226 222 221 223
310 309 307 304 295 284 273 268 270 265 258 256 255 260 261 257 254 249 242 239 240 240 240 229 224 218 218
309 306 303 300 296 290 279 269 266 267 263 256 253 253 256 255 254 249 254 243 244 240 240 244 225 208 213
310 305 300 298 295 290 286 273 266 266 264 259 254 249 250 253 252 249 255 254 245 247 238 235 228 229 222
306 304 299 294 293 292 286 280 268 265 263 261 256 250 245 247 253 245 257 253 256 246 241 234 229 222 216
305 300 295 291 290 290 285 280 276 265 263 262 257 251 246 246 250 242 252 256 255 237 230 232 231 216 213
299 295 291 290 290 286 285 281 278 269 260 262 257 252 247 244 247 248 250 228 230 237 210 197 201 198 198
298 297 291 290 287 284 285 286 282 269 263 261 256 251 246 244 241 249 251 248 234 219 211 188 181 187 197
297 292 290 292 290 289 286 285 282 257 271 262 258 251 248 243 233 241 240 234 234 227 186 164 163 175 186
297 293 292 289 287 289 289 283 281 253 263 264 257 252 249 243 233 234 239 224 220 210 210 197 186 187 192
296 293 293 294 292 288 287 285 282 255 264 263 261 251 254 243 236 234 241 234 220 207 194 200 195 194 178